Date String (YYYY-MM-DD hh:mm:ss) UTC,Instrument flags,absolute air pressure of the measurement (hPa),sample flow rate (lpm),inlet stack bypass flow (lpm),air temperature of the measurement (°C),ambient temperature measured by the external sensor (°C),aerosol sample conditioner tube jacket temperature (°C),OPC LED temperature (°C),internal box temperature (°C),relative humidity of the measurement (%),span deviation,mass concentration of particles derived from Lorenz-Mie calculation of OPC scattering (μg/m³),mass concentration of particles derived from Lorenz-Mie calculation of OPC scattering (μg/m³),mass concentration of particles derived from Lorenz-Mie calculation of OPC scattering (μg/m³)
DateTimeUTC,F1_M11,P_M11,Q1_M11,Q2_M11,T1_M11,T2_M11,T3_M11,T4_M11,T5_M11,U1_M11,ZSPAN_M11,X0_M11,X2_M11,X1_M11
2024-01-13 07:00:00,SystemResetWarning,0818.7,5.00,000.00,018.9,018.1,000.0,027.3,020.0,5.7,0000.7,0013.00,0004.83,0003.93
2024-01-13 07:01:00,SystemResetWarning,0818.8,5.00,000.00,018.8,018.0,000.0,027.3,020.0,5.6,0001.3,0013.32,0004.82,0003.92
2024-01-13 07:02:00,SystemResetWarning,0818.8,5.00,000.00,018.8,017.9,000.0,027.3,020.0,5.6,0001.5,0013.60,0004.82,0003.91
2024-01-13 07:03:00,SystemResetWarning,0818.8,5.00,000.00,018.8,017.8,000.0,027.3,020.0,5.6,0001.0,0013.86,0004.81,0003.90
2024-01-13 07:04:00,SystemResetWarning,0818.8,5.01,000.00,018.9,018.0,000.0,027.3,020.3,5.6,0000.6,0013.61,0004.80,0003.89
2024-01-13 07:05:00,SystemResetWarning,0818.9,5.01,000.00,019.0,018.8,000.0,027.3,020.8,5.6,0001.0,0014.03,0004.78,0003.89
2024-01-13 07:06:00,SystemResetWarning,0818.7,4.99,000.00,019.1,019.1,000.0,027.3,020.7,5.5,0001.8,0014.25,0004.77,0003.91
2024-01-13 07:07:00,SystemResetWarning,0818.5,4.99,000.00,019.0,018.9,000.0,027.3,020.3,5.5,0002.4,0014.96,0004.74,0003.91
2024-01-13 07:08:00,SystemResetWarning,0818.3,5.01,000.00,019.0,018.6,000.0,027.3,020.0,5.5,0002.6,0015.51,0004.76,0003.92
2024-01-13 07:09:00,SystemResetWarning,0818.3,5.01,000.00,018.9,018.3,000.0,027.3,020.0,5.5,0002.9,0014.64,0004.77,0003.93
2024-01-13 07:10:00,SystemResetWarning,0818.3,5.00,000.00,018.9,018.1,000.0,027.3,020.0,5.5,0002.8,0014.02,0004.73,0003.92
2024-01-13 07:11:00,SystemResetWarning,0818.2,4.99,000.00,018.9,017.9,000.0,027.4,020.0,5.5,0002.8,0013.65,0004.75,0003.94
2024-01-13 07:12:00,SystemResetWarning,0818.1,5.00,000.00,018.8,017.8,000.0,027.4,020.0,5.5,0002.6,0013.60,0004.80,0003.96
2024-01-13 07:13:00,SystemResetWarning,0818.1,5.00,000.00,018.8,017.8,000.0,027.4,020.1,5.5,0002.2,0013.69,0004.79,0003.98
2024-01-13 07:14:00,SystemResetWarning,0818.1,5.00,000.00,018.9,018.3,000.0,027.3,020.5,5.5,0002.7,0013.69,0004.86,0004.00
2024-01-13 07:15:00,SystemResetWarning,0818.1,5.01,000.00,019.0,019.0,000.0,027.3,020.8,5.4,0003.2,0014.34,0004.85,0004.00
2024-01-13 07:16:00,SystemResetWarning,0818.2,5.00,000.00,019.1,019.0,000.0,027.3,020.4,5.4,0003.4,0013.91,0004.84,0004.02
2024-01-13 07:17:00,SystemResetWarning,0818.3,4.99,000.00,019.0,018.7,000.0,027.3,020.1,5.4,0003.0,0013.65,0004.84,0004.02
2024-01-13 07:18:00,SystemResetWarning,0818.5,5.00,000.00,018.9,018.5,000.0,027.3,020.0,5.4,0003.0,0012.89,0004.84,0004.03
2024-01-13 07:19:00,SystemResetWarning,0818.5,5.01,000.00,018.9,018.3,000.0,027.3,020.0,5.5,0003.1,0011.89,0004.79,0004.05
2024-01-13 07:20:00,SystemResetWarning,0818.6,5.00,000.00,018.9,018.0,000.0,027.3,020.0,5.5,0002.8,0011.67,0004.73,0004.04
2024-01-13 07:21:00,SystemResetWarning,0818.5,4.99,000.00,018.8,017.9,000.0,027.3,020.0,5.5,0002.3,0011.16,0004.75,0004.05
2024-01-13 07:22:00,SystemResetWarning,0818.4,4.99,000.00,018.8,017.7,000.0,027.4,020.0,5.5,0000.4,0011.22,0004.76,0004.04
2024-01-13 07:23:00,SystemResetWarning,0818.3,5.00,000.00,018.8,017.7,000.0,027.4,020.1,5.5,0000.0,0010.54,0004.74,0004.05
2024-01-13 07:24:00,SystemResetWarning,0818.3,5.01,000.00,018.9,018.1,000.0,027.3,020.4,5.5,0000.0,0010.16,0004.74,0004.07
2024-01-13 07:25:00,SystemResetWarning,0818.2,5.01,000.00,019.0,018.8,000.0,027.3,020.8,5.5,0001.0,0009.96,0004.74,0004.09
2024-01-13 07:26:00,SystemResetWarning,0818.4,4.99,000.00,019.0,018.8,000.0,027.3,020.4,5.5,0001.3,0009.96,0004.75,0004.11
2024-01-13 07:27:00,SystemResetWarning,0818.6,4.99,000.00,019.0,018.6,000.0,027.3,020.0,5.5,0001.1,0010.15,0004.78,0004.11
2024-01-13 07:28:00,SystemResetWarning,0818.8,5.00,000.00,018.9,018.4,000.0,027.3,020.0,5.5,0001.6,0010.13,0004.77,0004.11
2024-01-13 07:29:00,SystemResetWarning,0819.1,4.99,000.00,018.9,018.2,000.0,027.3,020.0,5.5,0001.8,0009.79,0004.76,0004.12
2024-01-13 07:30:00,SystemResetWarning,0819.3,5.00,000.00,018.9,018.0,000.0,027.3,020.0,5.5,0002.1,0009.49,0004.74,0004.12
2024-01-13 07:31:00,SystemResetWarning,0818.7,5.01,000.00,018.8,017.9,000.0,027.3,020.0,5.4,0002.0,0009.54,0004.76,0004.13
2024-01-13 07:32:00,SystemResetWarning,0818.5,5.00,000.00,018.8,017.7,000.0,027.3,020.0,5.5,0002.5,0009.59,0004.78,0004.14
2024-01-13 07:33:00,SystemResetWarning,0818.4,5.00,000.00,018.8,017.7,000.0,027.3,020.0,5.4,0003.4,0009.49,0004.76,0004.16
2024-01-13 07:34:00,SystemResetWarning,0818.4,5.01,000.00,018.9,018.0,000.0,027.3,020.4,5.4,0003.5,0010.14,0004.76,0004.17
2024-01-13 07:35:00,SystemResetWarning,0818.5,5.01,000.00,019.0,018.8,000.0,027.3,020.8,5.4,0003.7,0010.52,0004.80,0004.19
2024-01-13 07:36:00,SystemResetWarning,0818.5,4.99,000.00,019.1,019.0,000.0,027.3,020.6,5.3,0004.1,0010.55,0004.82,0004.20
2024-01-13 07:37:00,SystemResetWarning,0818.5,4.99,000.00,019.0,018.7,000.0,027.3,020.2,5.3,0004.2,0010.29,0004.83,0004.21
2024-01-13 07:38:00,SystemResetWarning,0818.5,4.99,000.00,018.9,018.4,000.0,027.3,020.0,5.3,0004.1,0009.88,0004.79,0004.21
2024-01-13 07:39:00,SystemResetWarning,0818.8,5.00,000.00,018.9,018.2,000.0,027.3,020.0,5.3,0004.0,0009.80,0004.79,0004.23
2024-01-13 07:40:00,SystemResetWarning,0818.8,5.00,000.00,018.9,018.1,000.0,027.3,020.0,5.4,0003.5,0009.78,0004.80,0004.25
2024-01-13 07:41:00,SystemResetWarning,0818.6,4.99,000.00,018.9,017.9,000.0,027.3,020.0,5.4,0002.5,0010.06,0004.87,0004.26
2024-01-13 07:42:00,SystemResetWarning,0818.3,5.00,000.00,018.8,017.8,000.0,027.3,020.0,5.3,0002.7,0010.41,0004.89,0004.27
2024-01-13 07:43:00,SystemResetWarning,0818.2,5.01,000.00,018.8,017.8,000.0,027.3,020.1,5.3,0002.4,0010.41,0004.87,0004.28
2024-01-13 07:44:00,SystemResetWarning,0818.4,5.02,000.00,018.9,018.3,000.0,027.3,020.5,5.3,0002.1,0010.49,0004.88,0004.29
2024-01-13 07:45:00,SystemResetWarning,0818.5,5.00,000.00,019.1,019.0,000.0,027.3,020.9,5.3,0002.4,0010.22,0004.89,0004.29
2024-01-13 07:46:00,SystemResetWarning,0818.4,4.99,000.00,019.1,019.3,000.0,027.3,020.7,5.2,0002.3,0009.93,0004.87,0004.28
2024-01-13 07:47:00,SystemResetWarning,0818.3,4.99,000.00,019.1,019.0,000.0,027.3,020.2,5.2,0002.2,0009.70,0004.82,0004.27
2024-01-13 07:48:00,SystemResetWarning,0818.3,5.01,000.00,019.0,018.6,000.0,027.3,020.0,5.3,0002.2,0009.46,0004.82,0004.28
2024-01-13 07:49:00,SystemResetWarning,0818.1,5.00,000.00,018.9,018.3,000.0,027.3,020.0,5.3,0002.8,0009.49,0004.84,0004.29
2024-01-13 07:50:00,SystemResetWarning,0817.9,4.99,000.00,018.9,018.1,000.0,027.4,020.0,5.3,0002.9,0009.55,0004.85,0004.29
2024-01-13 07:51:00,SystemResetWarning,0818.0,5.00,000.00,018.9,017.9,000.0,027.4,020.0,5.3,0003.3,0009.60,0004.86,0004.29
2024-01-13 07:52:00,SystemResetWarning,0818.1,5.01,000.00,018.9,017.8,000.0,027.4,020.1,5.3,0003.3,0009.33,0004.80,0004.29
2024-01-13 07:53:00,SystemResetWarning,0818.4,5.01,000.00,019.0,018.3,000.0,027.3,020.5,5.2,0003.4,0008.99,0004.77,0004.30
2024-01-13 07:54:00,SystemResetWarning,0818.5,5.00,000.00,019.1,019.0,000.0,027.3,020.9,5.2,0003.3,0008.98,0004.77,0004.30
2024-01-13 07:55:00,SystemResetWarning,0818.5,5.00,000.00,019.2,019.3,000.0,027.3,020.8,5.1,0003.2,0009.36,0004.74,0004.29
2024-01-13 07:56:00,SystemResetWarning,0818.3,4.99,000.00,019.2,019.1,000.0,027.3,020.4,5.1,0002.9,0009.37,0004.76,0004.30
2024-01-13 07:57:00,SystemResetWarning,0818.3,5.00,000.00,019.1,018.8,000.0,027.3,020.1,5.2,0002.9,0009.14,0004.77,0004.31
2024-01-13 07:58:00,SystemResetWarning,0818.4,5.00,000.00,019.0,018.5,000.0,027.3,020.0,5.2,0002.5,0009.27,0004.80,0004.32
2024-01-13 07:59:00,SystemResetWarning,0818.6,5.00,000.00,019.0,018.2,000.0,027.4,020.0,5.2,0002.7,0009.45,0004.79,0004.32
